www.pogodaiklimat.ru
ПОГОДА в Баня-Луке

Архив погоды в Баня-Луке (Босния и Герцеговина)

Время
(UTC), дата
04 30.06
05 30.06
06 30.06
07 30.06
11 30.06
12 30.06
13 30.06
14 30.06
15 30.06
16 30.06
07 1.07
08 1.07
09 1.07
13 1.07
14 1.07
15 1.07
16 1.07
17 1.07
18 1.07
19 1.07
20 1.07
21 1.07
00 2.07
03 2.07
04 2.07
05 2.07
06 2.07
08 2.07
10 2.07
11 2.07
09 3.07
11 3.07
12 3.07
13 3.07
14 3.07
15 3.07
16 3.07
17 3.07
18 3.07
19 3.07
20 3.07
21 3.07
00 4.07
03 4.07
04 4.07
06 4.07
07 4.07
08 4.07
09 4.07
10 4.07
11 4.07
12 4.07
13 4.07
14 4.07
15 4.07
20 4.07
06 5.07
07 5.07
08 5.07
09 5.07
10 5.07
11 5.07
12 5.07
13 5.07
14 5.07
15 5.07
16 5.07
17 5.07
18 5.07
19 5.07
20 5.07
21 5.07
03 6.07
04 6.07
05 6.07
06 6.07
08 6.07
09 6.07
10 6.07
13 6.07
14 6.07
15 6.07
16 6.07
Ветер
(напр.,м/с)
Видим. Явления Облачность Т
(С)
Тd
(С)
f
(%)
Тe
(С)
Тes
(С)
Комфортность P
(гПа)
Po
(гПа)
Тmin
(С)
Tmax
(С)
R
(мм)
R24
(мм)
S
(см)
СЗ 1 25 км ясно +19.5 +18.0 91 +23 +23 комфорт 1011.9 993.7
Ю 1 25 км ясно +21.1 +18.2 84 +25 +28 комфорт 1012.1 994.1
Ю 1 25 км ясно +23.4 +19.8 80 +30 +36 очень
душно
1012.3 994.4 +19.1 +37.0 0.0
З 1 25 км ясно +26.7 +18.9 62 +32 +42 очень
душно
1011.8 994.2
З 2 25 км 1/1 1200 м
[Cu med, cong]
+34.5 +21.4 47 +42 +60 опасность
перегрева
1010.8 993.7
С 2 25 км 1/1 1200 м
[Cu med, cong]
+35.0 +21.4 45 +43 +59 опасность
перегрева
1010.5 993.4
З 2 25 км 1/1 1200 м
[Cu med, cong]
+35.3 +21.4 45 +43 +57 опасность
перегрева
1010.4 993.3
С 2 25 км 1/1 1200 м
[Cu med, cong]
+35.8 +21.2 43 +43 +54 опасность
перегрева
1009.8 992.6
СВ 2 25 км 1/1 1200 м
[Cu med, cong]
+35.8 +16.7 32 +38 +45 очень
душно
1009.8 992.6
С 2 25 км 1/1 1200 м
[Cu med, cong]
+35.4 +20.0 41 +41 +45 опасность
перегрева
1009.7 992.5
З 1 25 км ясно +27.1 +20.3 66 +33 +44 очень
душно
1014.2 996.5
З 2 25 км ясно +30.5 +20.7 56 +38 +50 очень
душно
1013.7 996.3
З 2 25 км ясно +32.7 +15.0 34 +34 +51 опасность
солнечного
удара
1014.0 996.6
З 2 25 км 1/1 1200 м
[Cu med, cong]
+37.0 +11.8 22 +36 +50 очень
жарко
1011.5 994.3
С 2 25 км ясно +38.4 +18.6 32 +43 +54 опасность
перегрева
1010.9 993.8
С 2 25 км ясно +38.1 +18.0 31 +42 +49 опасность
перегрева
1010.2 993.1
С 2 25 км ясно +38.0 +15.7 27 +40 +44 очень
душно
1009.6 992.5
СВ 2 25 км 4/3 1200 м
[Sc diur, vesp Ac cuf]
+36.4 +12.6 24 +36 +37 очень
жарко
1009.7 992.6
С 2 25 км 5/4 1020 м
[Cb cap Ac cuf Ci ing]
+33.6 +14.6 32 +35 +35 душно 1010.3 993.0 +38.5
СВ 1 25 км 6/4 1080 м
[Cb cap Ac cuf Ci ing]
+29.4 +17.7 49 +34 +34 очень
душно
1011.4 993.9
В 1 25 км в посл. час дождь 6/4 1200 м
[Sc diur, vesp Ac cuf Ci sp]
+28.8 +16.6 48 +32 +32 душно 1013.1 995.5
В 1 25 км {дождь} 3/0
[Ac trans Ci fib]
+27.1 +17.2 55 +31 +31 душно 1013.5 995.8
В 1 25 км {дождь} 3/1 1200 м
[Sc Ac trans]
+23.6 +16.9 66 +27 +27 жарко 1015.2 997.3 0.0
В 1 25 км 5/1 1500 м
[Sc Ac lent Cs]
+22.1 +16.7 71 +26 +26 душно 1018.0 999.9
З 1 25 км 4/1 1200 м
[Cu hum Ac lent Cs]
+20.4 +16.1 76 +24 +25 комфорт 1018.5 1000.3
З 1 25 км 4/1 1380 м
[Cu hum Ac lent Cs]
+20.9 +15.0 69 +25 +27 комфорт 1019.7 1001.5
С 1 25 км 3/0 1380 м
[Ac cast Cs]
+21.9 +15.1 65 +25 +30 комфорт 1030.7 1012.5 +20.2 +38.5 0.0 0.0
штиль 0 50 км ?/? +24.7 +16.1 59 +28 +28 душно 1021.4 1003.5
ЮВ 1 17 км 6/3 1300 м
[Cu med, cong Ac trans Cs]
+27.3 +16.0 50 +31 +42 душно 1020.8 1003.0
С 3 25 км 3/1 1300 м
[Cu med, cong Cs]
+29.9 +15.4 41 +32 +46 жарко 1019.8 1002.7
С 1 25 км 3/1 1300 м
[Cu hum Ac lent]
+28.5 +16.8 49 +32 +46 душно 1019.0 1001.1
С 2 25 км 3/1 1200 м
[Cu med, cong Ci fib]
+21.7 +16.5 72 +26 +42 душно 1016.9 999.4
С 2 25 км 1/1 1200 м
[Cu med, cong Ci fib]
+32.2 +16.6 39 +35 +51 опасность
солнечного
удара
1028.2 1010.6
С 3 25 км 3/1 1200 м
[Cu med, cong Ci sp]
+33.2 +17.2 39 +37 +48 очень
душно
1015.6 998.5
С 2 25 км 3/3 1080 м
[Cb cap Ci ing]
+34.0 +17.1 37 +37 +45 очень
душно
1015.6 998.2
С 2 25 км 4/3 1080 м
[Cb cap Ac cuf Ci ing]
+34.1 +17.1 36 +37 +42 очень
душно
1015.4 998.1
С 2 25 км 5/3 1080 м
[Cb cap Ac cuf Ci ing]
+34.4 +16.9 35 +37 +40 очень
душно
1015.2 997.9
С 3 25 км 4/3 1110 м
[Cb cap Ac cuf Ci ing]
+32.6 +17.9 42 +37 +38 очень
душно
1015.3 997.9
С 2 25 км 4/3 1110 м
[Cb cap Ac cuf Ci ing]
+31.2 +18.2 46 +36 +36 очень
душно
1015.7 998.2 +34.6
С 2 25 км 3/3 1200 м
[Sc diur, vesp Ac cuf Ci ing]
+29.7 +18.9 52 +35 +35 очень
душно
1016.1 998.5
С 1 25 км 3/1 1410 м
[Sc diur, vesp Ac lent Ci sp]
+27.6 +19.3 61 +33 +33 очень
душно
1016.4 998.7
С 1 25 км 1/0
[Ac lent Ci fib]
+25.1 +19.3 70 +30 +30 душно 1016.8 998.9
штиль 0 25 км ясно +21.8 +18.3 81 +27 +27 душно 1017.2 999.1
штиль 0 25 км 3/1 1410 м
[Cu hum Ac lent]
+19.9 +17.7 87 +22 +22 комфорт 1017.3 999.1
СЗ 1 25 км 1/0
[Ac lent]
+19.8 +17.6 87 +24 +24 комфорт 1017.3 999.1
ЮЗ 1 25 км 1/0 1200 м
[Ac lent]
+23.4 +18.1 72 +29 +34 душно 1017.1 999.1 +19.6 +34.6
С 1 25 км ясно +25.6 +19.4 69 +31 +41 очень
душно
1017.2 999.3
С 2 25 км ясно +29.6 +19.2 54 +35 +48 очень
душно
1016.4 998.7
В 2 25 км ясно +31.6 +18.2 45 +36 +52 опасность
солнечного
удара
1015.7 998.2
С 2 25 км 1/1 1020 м
[Cu med, cong]
+33.8 +17.9 39 +38 +54 опасность
солнечного
удара
1015.3 997.9
СВ 2 25 км 1/0
[Ac lent]
+34.8 +18.6 38 +39 +57 опасность
солнечного
удара
1014.6 997.3
С 3 25 км 1/1 1020 м
[Cu med, cong]
+35.8 +17.3 34 +39 +53 опасность
солнечного
удара
1013.9 996.6
С 2 25 км 1/1 1020 м
[Cu med, cong]
+36.4 +16.8 31 +39 +53 опасность
солнечного
удара
1013.8 996.6
С 2 25 км 1/1 1020 м
[Cu med, cong]
+36.6 +18.4 34 +40 +51 опасность
солнечного
удара
1013.3 996.1
СВ 2 25 км 3/1 900 м
[Cb cap Cs]
+36.6 +12.7 24 +37 +43 очень
жарко
1012.9 995.7
штиль 0 25 км 3/3 1200 м
[Cu med, cong]
+28.0 +16.2 49 +31 +31 душно 1014.1 996.3
З 1 25 км {дождь} 4/3 1200 м
[Cu Sc Ac trans]
+23.8 +17.6 68 +28 +31 душно 1014.9 996.8 +21.7 +37.1 0.0
С 1 25 км {дождь} 5/4 1200 м
[Cu med, cong Ac trans Ci fib]
+25.0 +17.9 65 +29 +35 душно 1015.2 997.3
З 1 25 км в посл. час дождь 4/3 1080 м
[Cb cap Ac trans Ci ing]
+26.0 +18.7 64 +31 +40 очень
душно
1015.8 997.9
С 2 25 км {дождь} 4/3 1080 м
[Cb cap Ac trans Ci ing]
+27.6 +18.9 59 +33 +43 очень
душно
1015.3 997.5
С 1 25 км 4/3 1080 м
[Cb cap Ac trans Ci ing]
+29.0 +19.9 58 +35 +49 очень
душно
1015.0 997.3
З 1 25 км 4/3 1080 м
[Cb cap Ac trans Ci ing]
+30.4 +19.6 52 +36 +51 опасность
солнечного
удара
1014.2 996.6
С 1 25 км {дождь} 4/3 1080 м
[Cb cap Ac trans Ci ing]
+31.0 +20.0 52 +37 +51 опасность
солнечного
удара
1013.6 996.1 0.4
С 2 25 км 4/3 1080 м
[Cb cap Ac trans Ci ing]
+32.6 +19.4 46 +38 +48 очень
душно
1012.9 995.5
С 3 25 км 10/6 1200 м
[Sc Ac As]
+29.6 +18.0 50 +34 +35 очень
душно
1013.6 996.1
С 2 20 км гроза, ливневой дождь 10/6 1020 м
[Cb cap As op]
+27.8 +18.0 55 +32 +33 душно 1015.8 998.1
З 1 20 км слаб. дождь {гроза} 10/4 1200 м
[Frnb As op]
+25.6 +20.3 73 +32 +32 очень
душно
1014.8 997.0
Ю 1 20 км {гроза, дождь} 9/5 1200 м
[Sc Ac As]
+25.1 +20.6 76 +31 +32 очень
душно
1016.0 998.2
Ю 1 20 км {гроза, дождь} 8/8 1200 м
[Sc]
+24.8 +20.1 75 +30 +30 душно 1016.2 998.3 +32.7 0.9
Ю 1 20 км {гроза, дождь} 5/5 1200 м
[Sc]
+23.0 +18.1 74 +29 +29 очень
душно
1016.3 998.3
Ю 1 20 км {дождь} 4/3 1200 м
[Sc Ac trans]
+22.4 +18.3 78 +28 +28 душно 1016.8 998.7
Ю 1 20 км ясно +21.6 +17.9 79 +26 +26 душно 1017.6 999.5
З 1 25 км 1/0
[Ac trans]
+17.2 +15.7 91 +18 +18 1019.8 1001.3
штиль 0 25 км 3/0
[Ac trans]
+16.8 +15.6 93 +17 +17 1019.9 1001.4
Ю 1 25 км 3/0
[Cc]
+18.4 +16.4 88 +20 +22 1019.8 1001.4
СВ 1 25 км 3/0
[Ac trans]
+19.8 +16.9 83 +23 +28 комфорт 1019.7 1001.4 +16.5 +32.7 0.9
З 1 25 км 4/1 1410 м
[Sc Ac trans]
+25.4 +16.0 56 +29 +39 душно 1018.7 1000.7
С 2 25 км 4/1 1410 м
[Sc Ac trans]
+27.2 +16.8 53 +31 +43 душно 1018.5 1000.7
С 2 25 км 4/3 1410 м
[Cu med, cong Ac cast Ci sp]
+29.0 +14.3 41 +31 +43 жарко 1018.0 1000.3
С 2 25 км 4/3 1410 м
[Cu med, cong Ci fib]
+30.0 +10.7 30 +30 +40 жарко 1017.1 999.5
С 2 25 км 4/3 1300 м
[Cu med, cong Ac lent]
+31.4 +10.0 27 +31 +38 жарко 1017.0 999.4
С 2 25 км 4/3 1300 м
[Cu med, cong Ac lent]
+31.6 +9.4 25 +31 +35 жарко 1016.8 999.3
СВ 3 25 км 3/1 1410 м
[Cu med, cong Ci fib]
+32.0 +9.3 25 +31 +34 жарко 1016.5 999.0
Местоположение метеостанции Баня-Лука (Босния и Герцеговина): широта 44.78 долгота 17.22 высота над уровнем моря 156 м.
В архиве по умолчанию представлена погода в Баня-Луке за последнюю неделю. Архивные данные за месяц целиком и за предыдущие месяцы, начиная с января 2011 года, Вы можете получить, выбрав интересующий диапазон дат из раскрывающегося списка и нажав кнопку "Найти!".
*Определитесь, кто Вы:
Внимание! Время в таблицах - всемирное. Для получения местного времени необходимо прибавить поправку, которая равна 1 ч.
Смотрите также архив погоды в соседних городах и на ближайших метеорологических станциях:
Партнеры нашего сайта:      
Пояснения к столбцам:
  • Ветер - указаны скорость ветра в м/с - средняя за 10 мин, порывы в срок и между сроками (в фигурных скобках) и направление, откуда дует ветер: С - северный,
  • СВ - северо-восточный, В - восточный, ЮВ - юго-восточный, Ю - южный, ЮЗ - юго-западный, З - западный, СЗ - северо-западный.
  • Видимость - горизонтальная дальность видимости в метрах или километрах. При видимости от 1 до 10 км при отсутствии осадков обычно наблюдается дымка, при ухудшении видимости до 1 км и менее - туман. В сухую погоду видимость может ухудшаться дымом, пылью или мглою.
  • Явления - указаны атмосферные явления, наблюдавшиеся в срок или в последний час перед сроком; фигурными скобками обозначены явления, наблюдавшиеся между сроками (за 1-3 часа до срока); квадратными скобками обозначены град или гололедные отложения с указанием их диаметра в мм.
  • Облачность - указаны через наклонную черту общая и нижняя облачность в баллах и высота нижней границы облаков в метрах; квадратными скобками обозначены формы облаков: Ci - перистые, Cs - перисто-слоистые, Cc - перисто-кучевые, Ac - высококучевые, As - высокослоистые, Sc - слоисто-кучевые, Ns - слоисто-дождевые, Cu - кучевые, Cb - кучево-дождевые. Подробнее классификацию облаков см. в Атласе облаков (PDF).
  • T - Температура воздуха - температура, измеренная на высоте 2 м над землей.
  • Td - Температура точки росы - температура, при понижении до которой содержащийся в воздухе водяной пар достигнет насыщения.
  • f - Относительная влажность воздуха - влажноcть воздуха, измеренная на высоте 2 м над землей.
  • Te - Эффективная температура - температура, которую ощущает одетый по сезону человек в тени. Характеристика душности погоды. При расчете учитывается влияние влажности воздуха и скорости ветра на теплоощущения человека.
  • Tes - Эффективная температура на солнце - температура, которую ощущает человек, с поправкой на солнечный нагрев. Характеристика знойности погоды. Зависит от высоты солнца над горизонтом, облачности и скорости ветра. Ночью, в пасмурную погоду, а также при ветре 12 м/с и более поправка равна нулю.
  • P - Атмосферное давление - приведенное к уровню моря атмосферное давление.
  • Po - Атмосферное давление - измеренное на уровне метеостанции атмосферное давление.
  • Tmin - Минимальная температура - минимум температуры воздуха на высоте 2 м над землей.
  • Tmax - Максимальная температура - максимум температуры воздуха на высоте 2 м над землей.
  • R - Количество осадков - Количество выпавших осадков за период времени, мм. При наведении курсора мыши на число - период времени, за который выпало указанное количество осадков.
  • R24 - Количество осадков - Количество выпавших осадков за 24 часа, мм.
  • S - Снежный покров - Высота снежного покрова, см. При наведении курсора мыши на число - состояние снежного покрова и степень покрытия местности в баллах.